"Pseudo-MPEC" for P11OuxW

Created 2023 Nov 23 2:22:13 UT using Find_Orb

Click here for an explanation of pseudo-MPECs

 
 Astrometry: 
     P11OuxW  C2023 11 20[2/A?UZS\J]n[EVyK)CokIW#/M:7$?rjNm0^N=@Rh3V3DV8'y.reF51
     P11OuxW* C2023 11 20ueliVp.Na6vKtJh:Vh\iDIgTbn-Jfci;O[*+Ql4l)0=#4+rDM.gLF51
     P11OuxW  C2023 11 20XUt#hDjQ3_ZHD@y6.l?cw,oo*B#qn5LOcPqatHN3]vW#Pn1Bg)+dF51
     P11OuxW 6C2023 11 21iT3sQ7jyqNj!EQOHb+V@b,4M(UVh@yBSrsDs%3!o4!c#ZLb7FJCZZ84
     P11OuxW 6C2023 11 21wi-n/,6=$d;t7@.l5vmj:pJfX;f\_3ei@3yL#p*g1YXRgKgc1#i\Z84
     P11OuxW 1C2023 11 21.20229 07 12 30.51 +16 38 17.5    ~BL7M 20.2 VXNEOCP033
     P11OuxW 1C2023 11 21.20284 07 12 30.48 +16 38 27.5    ~BL7M 20.2 VXNEOCP033
     P11OuxW 1C2023 11 21.20339 07 12 30.43 +16 38 37.4    ~BL7M 20.1 VXNEOCP033
     P11OuxW  C2023 11 21C!w/86/KUSFhRLFHW3YjF1WqStiR2OhR_BH+R!Qt-$@/5.C%T.\KU74
     P11OuxW  C2023 11 21a0nZb'48o@QOcSZoU2i6dLKroPLAstrometry#fQ?vES9gQu.(JqU74
     P11OuxW  C2023 11 21[_@jq/a-Mg2E\K9(V2XVeq\-2;*6f@uredacted;,dloKSC8eBN[P93
     P11OuxW  C2023 11 21HB=$.clickv4NGq[J]v.sNIHm;qIn1h79J9[g=jcRre#S5`)w3yLP93
     P11OuxW  C2023 11 21\!sRrk!Ai29KQ'BuDNm/Qxk]vY\;]uG0herefHQClc9_4j@Vfe_YP93
     P11OuxW KC2023 11 22Nj4'\q#oTY07.2GNZxqa0fOU,`AKETT5h[K`8@:K++Y=--Q+YXGC203
     P11OuxW 0B2023 11 22DPx*6?05NdKyvV7qJbVA?c(JHa(I+]ej#uQ_QG^'$OxN7T^2MGnxM49
     P11OuxW 0B2023 11 22J0Zs;;sxdU!Dfor`:ubRVf'/nr=S^kT,C$#x1Kdxi?S3ZGbBysbZM49
     P11OuxW 0B2023 11 22(0,EcDjrQ3vmkNYcTCbw;evcMrZQ(k](.(rZ3`WQ_9nm\VkyLVOiM49
     P11OuxW KC2023 11 22]H_^\6f'tHjVuJi['IfAc44EE%xq5N:svyWXjC:dF*tATcV6fvWO203
     P11OuxW KC2023 11 220EOU%M:!t3QNjdh$(4.V/b??x+o/5%U5ZkoNGDbRr,6t@rb(NKkG204
     P11OuxW KC2023 11 22jC,_SA?b_.B+WJ,!28s?UcmO[VXc[#0LqeS8*oRl77JwKN5EGDb;204
     P11OuxW KC2023 11 22txK,a,cL2cCxq5\fAOXXyt/$E#Jife=d6#%B@QU^N-Udiu_rSrK'H21
     P11OuxW KC2023 11 22'P*STJssg7/E=+en:IwGXakTF=aii?ML[PTr7==TH\#=`;cL;'h4H21
     P11OuxW KC2023 11 22p14i^:o?EoM=aj4;lpr/0rN)g7U)rCqh.+Wly'exv8;7(O-u%*0RH21
     P11OuxW KC2023 11 222m?$IvFs?UXP!XWg0.%LEbUR]/XAtd.g]fexplanation6`73[FlH21
     P11OuxW KB2023 11 232G$C44Qn:QVp)m%;hS%vAcb1#YH6:H\p`$^O/,i`b9j/s_xLeNm(958
     P11OuxW KB2023 11 23kY_J'uPXyr#^!2kks-*=qWo*AwQ#h0b8l81vJ0vBg4xSYigMC8+-958
     P11OuxW KB2023 11 235u*fyMQ;?CSP?#`;'Ox[cAa*n+By_)hZg/3:`OZ)(0`K=`RF83/Y958

Station data:
(033) Karl Schwarzschild Observatory, Tautenburg  (N50.980137 E11.711240)
   Germany.  Observer B. Stecklum. 1.34-m f/3 Schmidt + CCD.
(203) GiaGa Observatory  (N45.541405 E8.995500)  Italy.  Observers S. Foglia,
   G. Galli. Measurer G. Galli. 0.36-m f/5.76 Schmidt-Cassegrain + CCD.
(204) Schiaparelli Observatory  (N45.867930 E8.770800)  Italy.  Observer L.
   Buzzi. 0.60-m f/4.64 Newtonian + CCD0.84-m f/3.5 reflector + CCD.
(958) Observatoire de Dax  (N43.693324 W1.030390)  France.  Observer P.
   Dupouy. 0.32-m Schmidt-Cassegrain.
(F51) Pan-STARRS 1, Haleakala  (N20.707234 W156.255910)  US/Hawaii.
   Observers J. Bulger, T. Lowe, A. Schultz, M. Willman. Measurers K.
   Chambers, S. Chastel, T. de Boer, L. Denneau, J. Fairlamb, H. Flewelling,
   M. Huber, C.-C. Lin, E. Magnier, Y. Ramanjooloo, R. Wainscoat, R. Weryk.
   1.8-m Ritchey-Chrétien + CCD.
(H21) Astronomical Research Observatory, Westfield  (N39.483054 W87.968270)
   US/Illinois.  Observer R. Holmes. Measurers S. Foglia, L. Buzzi, T.
   Linder, R. Holmes. 0.76-m f/3.0 astrograph + CCD0.81-m f/4.0 astrograph +
   CCD0.61-m f/4.5 astrograph + CCD0.40-m f/5.32 astrograph + CCD.
(M49) IAS Remote Observatory, Hakos  (S23.236549 E16.361720)  Namibia.
   Observers D. Husar, M. Junius. Measurer D. Husar. 0.25-m f/4.6 reflector +
   CCD.
(P93) Space Tracking and Communications Center, JAXA  (N34.672350
   E133.544330)  Japan.  Observers S. Okumura, T. Fujiwara. 1.0-m f/3.0
   reflector + CCD.
(U74) JPL SynTrack Robotic Telescope 2, Auberry  (N37.070341 W119.412800)
   US/California.  Observers N. Saini, C. Zhai, R. Trahan, M. Zhan, M. Shao.
   0.36-m f/2.2 Schmidt.
(Z84) Calar Alto-Schmidt  (N37.224046 W2.548210)  Spain.  Observer R. Kresken.
    Measurers E. Schwab, D. Koschny, M. Micheli. 0.8-m f/3 Schmidt + CCD.

Orbital elements:  P11OuxW
   Perihelion 2023 Oct 27.21640 +/- 0.0751 TT =  5:11:37 (JD 2460244.71640)
Epoch 2023 Nov 23.0 TT = JDT 2460271.5   Earth MOID: 0.0838      AutoNEOCP
M  11.22815657 +/- 0.11             (J2000 ecliptic)
n   0.41921764 +/- 0.00319          Peri.  331.65709 +/- 0.06
a   1.76811162 +/- 0.00896          Node    64.16727 +/- 0.015
e   0.4138955 +/- 0.0028            Incl.   32.87035 +/- 0.09
P   2.35/858.73d           H 22.87  G  0.15   U  8.9
q 1.03629803 +/- 0.000295    Q 2.49992521 +/- 0.0176
From 27 observations 2023 Nov. 20-23; mean residual 0".37
Residuals in arcseconds: 
231120 F51  .09-  .12+    231121 U74  .14+  .11+    231122 204  .03+  .35+    
231120 F51  .01+  .20-    231121 P93  .61+  .23+    231122 204  .17+  .00     
231120 F51  .03-  .04+    231121 P93  .34-  .18-    231122 H21  .20-  .39+    
231121 Z84  .04-  .02+    231121 P93  .13-  .84-    231122 H21  .01+  .36+    
231121 Z84  .30+  .01-    231122 203  .09-  .55-    231122 H21  .17-  .47+    
231121 033  .18+  .13+    231122 M49  .37-  .35+    231122 H21  .22-  .57+    
231121 033  .33+  .19+    231122 M49  .65-  .21+    231123 958  .15-  .18-    
231121 033  .19+  .15+    231122 M49  .02+  .13+    231123 958  .19+  .30+    
231121 U74  .11-  .37+    231122 203  .63+  1.6-    231123 958  .04+  .38-    

Ephemerides (geocentric):
Date (UTC) HH   RA             Dec           delta  r     elong  mag " sig PA
---- --------  ------------   ------------  ------ ------ -----  --- --------
2023 11 23 02  07 10 27.702   +26 08 07.42  .12165 1.0761 134.3 20.1 .104 125
2023 11 23 03  07 10 24.522   +26 20 37.58  .12170 1.0762 134.3 20.1 .105 125
2023 11 23 04  07 10 21.324   +26 33 07.15  .12175 1.0763 134.4 20.1 .107 124
2023 11 23 05  07 10 18.106   +26 45 36.10  .12180 1.0764 134.5 20.1 .108 123
2023 11 23 06  07 10 14.868   +26 58 04.41  .12185 1.0765 134.5 20.1 .110 123
2023 11 23 07  07 10 11.611   +27 10 32.06  .12191 1.0767 134.6 20.1 .111 122
2023 11 23 08  07 10 08.334   +27 22 59.03  .12196 1.0768 134.6 20.1 .113 122
2023 11 23 09  07 10 05.038   +27 35 25.31  .12202 1.0769 134.7 20.1 .114 121
2023 11 23 10  07 10 01.721   +27 47 50.86  .12208 1.0770 134.8 20.1 .116 120
2023 11 23 11  07 09 58.385   +28 00 15.69  .12214 1.0771 134.8 20.1 .118 120
2023 11 23 12  07 09 55.029   +28 12 39.75  .12220 1.0773 134.9 20.1 .119 119
2023 11 23 13  07 09 51.653   +28 25 03.04  .12227 1.0774 134.9 20.1 .121 118
2023 11 23 14  07 09 48.256   +28 37 25.53  .12234 1.0775 135.0 20.1 .123 118
2023 11 23 15  07 09 44.839   +28 49 47.21  .12240 1.0776 135.1 20.1 .125 117
2023 11 23 16  07 09 41.402   +29 02 08.06  .12247 1.0777 135.1 20.1 .127 116
2023 11 23 17  07 09 37.945   +29 14 28.05  .12254 1.0779 135.2 20.1 .129 116
2023 11 23 18  07 09 34.466   +29 26 47.17  .12262 1.0780 135.2 20.1 .131 115
2023 11 23 19  07 09 30.968   +29 39 05.41  .12269 1.0781 135.3 20.1 .133 114
2023 11 23 20  07 09 27.448   +29 51 22.73  .12276 1.0782 135.3 20.1 .135 114
2023 11 23 21  07 09 23.908   +30 03 39.13  .12284 1.0784 135.4 20.1 .137 113
2023 11 23 22  07 09 20.347   +30 15 54.59  .12292 1.0785 135.4 20.1 .139 113
2023 11 23 23  07 09 16.765   +30 28 09.08  .12300 1.0786 135.5 20.1 .141 112
2023 11 24 00  07 09 13.162   +30 40 22.60  .12308 1.0787 135.5 20.1 .144 111
2023 11 24 01  07 09 09.538   +30 52 35.11  .12317 1.0788 135.6 20.1 .146 111
2023 11 24 02  07 09 05.892   +31 04 46.61  .12325 1.0790 135.6 20.1 .148 110
2023 11 24 03  07 09 02.225   +31 16 57.08  .12334 1.0791 135.7 20.1 .151 110
2023 11 24 04  07 08 58.537   +31 29 06.50  .12343 1.0792 135.7 20.1 .153 109
2023 11 24 05  07 08 54.827   +31 41 14.85  .12352 1.0793 135.8 20.1 .156 109
2023 11 24 06  07 08 51.096   +31 53 22.11  .12361 1.0795 135.8 20.1 .159 108
2023 11 24 07  07 08 47.343   +32 05 28.27  .12370 1.0796 135.9 20.1 .161 107
2023 11 24 08  07 08 43.568   +32 17 33.32  .12380 1.0797 135.9 20.1 .164 107
2023 11 24 09  07 08 39.771   +32 29 37.23  .12389 1.0798 135.9 20.1 .167 106
2023 11 24 10  07 08 35.953   +32 41 39.99  .12399 1.0800 136.0 20.1 .170 106
2023 11 24 11  07 08 32.112   +32 53 41.59  .12409 1.0801 136.0 20.1 .172 105
2023 11 24 12  07 08 28.249   +33 05 42.00  .12419 1.0802 136.1 20.1 .175 105
2023 11 24 13  07 08 24.363   +33 17 41.21  .12429 1.0803 136.1 20.1 .178 104
2023 11 24 14  07 08 20.456   +33 29 39.20  .12440 1.0805 136.1 20.1 .181 104
2023 11 24 15  07 08 16.526   +33 41 35.97  .12450 1.0806 136.2 20.1 .184 103
2023 11 24 16  07 08 12.573   +33 53 31.49  .12461 1.0807 136.2 20.1 .188 103
2023 11 24 17  07 08 08.597   +34 05 25.75  .12472 1.0808 136.2 20.1 .191 102
2023 11 24 18  07 08 04.599   +34 17 18.73  .12483 1.0810 136.3 20.1 .194 102
2023 11 24 19  07 08 00.578   +34 29 10.43  .12494 1.0811 136.3 20.1 .197 101
2023 11 24 20  07 07 56.534   +34 41 00.81  .12506 1.0812 136.3 20.1 .201 101
2023 11 24 21  07 07 52.467   +34 52 49.88  .12517 1.0813 136.4 20.1 .204 101
2023 11 24 22  07 07 48.377   +35 04 37.61  .12529 1.0815 136.4 20.1 .207 100
2023 11 24 23  07 07 44.263   +35 16 24.00  .12541 1.0816 136.4 20.1 .211 100
2023 11 25 00  07 07 40.126   +35 28 09.02  .12553 1.0817 136.5 20.1 .214  99
2023 11 25 01  07 07 35.966   +35 39 52.67  .12565 1.0818 136.5 20.1 .218  99